| time (UTC) | temp C | wind direction | speed KPH | gust KPH | rain 1hr cm | rain 24hr cm | rain mn cm | humidity % | barometer mb |
| 20260509174004 | 2 | 352 | 4.8 | 4.8 | 0.00 | 0.00 | 0.00 | 62 | 1030.0 |
| 20260509173909 | 2 | 352 | 3.2 | 3.2 | 0.00 | 0.00 | 0.00 | 61 | 1023.7 |
| 20260509173505 | 2 | 352 | 3.2 | 4.8 | 0.00 | 0.00 | 0.00 | 62 | 1029.8 |
| 20260509173403 | 2 | 352 | 3.2 | 3.2 | 0.00 | 0.00 | 0.00 | 62 | 1023.4 |
| 20260509173005 | 2 | 352 | 3.2 | 4.8 | 0.00 | 0.00 | 0.00 | 63 | 1029.9 |
| 20260509172900 | 2 | 352 | 3.2 | 3.2 | 0.00 | 0.00 | 0.00 | 63 | 1023.4 |
| 20260509172504 | 2 | 352 | 3.2 | 4.8 | 0.00 | 0.00 | 0.00 | 63 | 1029.8 |
| 20260509172357 | 2 | 352 | 1.6 | 3.2 | 0.00 | 0.00 | 0.00 | 63 | 1023.4 |
| 20260509171853 | 2 | 352 | 3.2 | 3.2 | 0.00 | 0.00 | 0.00 | 63 | 1023.4 |
| 20260509171505 | 2 | 352 | 4.8 | 4.8 | 0.00 | 0.00 | 0.00 | 63 | 1029.8 |
| 20260509171349 | 2 | 352 | 3.2 | 3.2 | 0.00 | 0.00 | 0.00 | 63 | 1023.4 |
| 20260509170846 | 2 | 352 | 3.2 | 3.2 | 0.00 | 0.00 | 0.00 | 64 | 1023.3 |
| 20260509170505 | 2 | 352 | 4.8 | 4.8 | 0.00 | 0.00 | 0.00 | 64 | 1029.6 |
| 20260509170341 | 2 | 352 | 3.2 | 3.2 | 0.00 | 0.00 | 0.00 | 63 | 1023.3 |
| 20260509170005 | 3 | 352 | 3.2 | 4.8 | 0.00 | 0.00 | 0.00 | 63 | 1029.4 |
| 20260509165836 | 3 | 352 | 3.2 | 3.2 | 0.00 | 0.00 | 0.00 | 63 | 1023.1 |
| 20260509165505 | 3 | 352 | 3.2 | 4.8 | 0.00 | 0.00 | 0.00 | 62 | 1029.6 |
| 20260509165331 | 3 | 352 | 3.2 | 3.2 | 0.00 | 0.00 | 0.00 | 62 | 1023.3 |
| 20260509165005 | 3 | 352 | 3.2 | 4.8 | 0.00 | 0.00 | 0.00 | 62 | 1029.6 |
| 20260509164827 | 3 | 352 | 3.2 | 3.2 | 0.00 | 0.00 | 0.00 | 63 | 1023.2 |
| 20260509164505 | 3 | 352 | 3.2 | 3.2 | 0.00 | 0.00 | 0.00 | 62 | 1029.5 |
| 20260509164323 | 3 | 352 | 1.6 | 3.2 | 0.00 | 0.00 | 0.00 | 63 | 1022.9 |
| 20260509163820 | 3 | 352 | 1.6 | 3.2 | 0.00 | 0.00 | 0.00 | 62 | 1022.9 |
| 20260509163505 | 3 | 352 | 4.8 | 4.8 | 0.00 | 0.00 | 0.00 | 61 | 1029.4 |
| 20260509163316 | 3 | 352 | 3.2 | 3.2 | 0.00 | 0.00 | 0.00 | 61 | 1023.0 |
| 20260509163004 | 3 | 352 | 3.2 | 4.8 | 0.00 | 0.00 | 0.00 | 60 | 1029.4 |
| 20260509162816 | 3 | 352 | 1.6 | 3.2 | 0.00 | 0.00 | 0.00 | 60 | 1023.1 |
| 20260509162505 | 3 | 352 | 3.2 | 4.8 | 0.00 | 0.00 | 0.00 | 61 | 1029.5 |
| 20260509162309 | 3 | 352 | 1.6 | 3.2 | 0.00 | 0.00 | 0.00 | 61 | 1022.9 |
| 20260509162005 | 3 | 352 | 3.2 | 4.8 | 0.00 | 0.00 | 0.00 | 62 | 1029.3 |
| 20260509161805 | 3 | 352 | 1.6 | 1.6 | 0.00 | 0.00 | 0.00 | 62 | 1022.8 |
| 20260509161301 | 3 | 352 | 3.2 | 3.2 | 0.00 | 0.00 | 0.00 | 62 | 1022.9 |
| 20260509160757 | 3 | 352 | 0.0 | 1.6 | 0.00 | 0.00 | 0.00 | 62 | 1022.9 |
| 20260509160505 | 3 | 352 | 1.6 | 4.8 | 0.00 | 0.00 | 0.00 | 61 | 1029.2 |
| 20260509160253 | 3 | 352 | 1.6 | 1.6 | 0.00 | 0.00 | 0.00 | 61 | 1023.0 |
| 20260509160005 | 3 | 352 | 3.2 | 3.2 | 0.00 | 0.00 | 0.00 | 60 | 1029.1 |
| 20260509155748 | 3 | 352 | 3.2 | 3.2 | 0.00 | 0.00 | 0.00 | 60 | 1022.8 |
| 20260509155505 | 3 | 352 | 3.2 | 4.8 | 0.00 | 0.00 | 0.00 | 60 | 1029.2 |
| 20260509155245 | 3 | 352 | 1.6 | 3.2 | 0.00 | 0.00 | 0.00 | 60 | 1023.1 |
| 20260509155004 | 3 | 352 | 3.2 | 4.8 | 0.00 | 0.00 | 0.00 | 59 | 1029.3 |
| 20260509154741 | 3 | 352 | 1.6 | 1.6 | 0.00 | 0.00 | 0.00 | 59 | 1022.7 |
| 20260509154239 | 3 | 352 | 1.6 | 3.2 | 0.00 | 0.00 | 0.00 | 59 | 1022.8 |
| 20260509154005 | 3 | 352 | 3.2 | 4.8 | 0.00 | 0.00 | 0.00 | 59 | 1029.3 |
| 20260509153736 | 3 | 352 | 1.6 | 3.2 | 0.00 | 0.00 | 0.00 | 60 | 1022.9 |
| 20260509153231 | 3 | 352 | 1.6 | 3.2 | 0.00 | 0.00 | 0.00 | 59 | 1023.0 |
| 20260509153005 | 3 | 352 | 3.2 | 4.8 | 0.00 | 0.00 | 0.00 | 59 | 1029.3 |
| 20260509152728 | 3 | 352 | 1.6 | 3.2 | 0.00 | 0.00 | 0.00 | 59 | 1022.9 |
| 20260509152509 | 3 | 353 | 3.2 | 3.2 | 0.00 | 0.00 | 0.00 | 59 | 1029.3 |
| 20260509152225 | 3 | 352 | 1.6 | 1.6 | 0.00 | 0.00 | 0.00 | 59 | 1023.0 |
| 20260509152004 | 3 | 352 | 3.2 | 3.2 | 0.00 | 0.00 | 0.00 | 59 | 1029.3 |
| 20260509151722 | 3 | 352 | 1.6 | 1.6 | 0.00 | 0.00 | 0.00 | 60 | 1023.0 |
| 20260509151505 | 3 | 352 | 1.6 | 3.2 | 0.00 | 0.00 | 0.00 | 60 | 1029.2 |
| 20260509151218 | 3 | 353 | 1.6 | 3.2 | 0.00 | 0.00 | 0.00 | 60 | 1022.8 |
| 20260509151005 | 3 | 353 | 3.2 | 4.8 | 0.00 | 0.00 | 0.00 | 60 | 1029.5 |
| 20260509150716 | 3 | 353 | 1.6 | 3.2 | 0.00 | 0.00 | 0.00 | 60 | 1022.9 |
| 20260509150505 | 3 | 353 | 3.2 | 4.8 | 0.00 | 0.00 | 0.00 | 60 | 1029.2 |
| 20260509150214 | 3 | 353 | 1.6 | 1.6 | 0.00 | 0.00 | 0.00 | 60 | 1022.9 |
| 20260509150004 | 3 | 353 | 1.6 | 3.2 | 0.00 | 0.00 | 0.00 | 60 | 1029.0 |
| 20260509145710 | 3 | 353 | 0.0 | 1.6 | 0.00 | 0.00 | 0.00 | 60 | 1022.8 |
| 20260509145504 | 3 | 353 | 3.2 | 3.2 | 0.00 | 0.00 | 0.00 | 59 | 1029.1 |
| 20260509145206 | 3 | 353 | 0.0 | 1.6 | 0.00 | 0.00 | 0.00 | 57 | 1022.7 |
| 20260509145004 | 3 | 353 | 1.6 | 3.2 | 0.00 | 0.00 | 0.00 | 57 | 1029.1 |
| 20260509144702 | 3 | 353 | 1.6 | 1.6 | 0.00 | 0.00 | 0.00 | 57 | 1022.7 |
| 20260509144505 | 3 | 353 | 3.2 | 4.8 | 0.00 | 0.00 | 0.00 | 57 | 1029.2 |
| 20260509144200 | 3 | 353 | 1.6 | 3.2 | 0.00 | 0.00 | 0.00 | 58 | 1022.8 |
| 20260509143657 | 3 | 353 | 1.6 | 1.6 | 0.00 | 0.00 | 0.00 | 59 | 1022.6 |
| 20260509143505 | 4 | 353 | 3.2 | 3.2 | 0.00 | 0.00 | 0.00 | 58 | 1029.1 |
| 20260509143154 | 4 | 353 | 1.6 | 1.6 | 0.00 | 0.00 | 0.00 | 57 | 1022.7 |
| 20260509143004 | 4 | 353 | 0.0 | 3.2 | 0.00 | 0.00 | 0.00 | 57 | 1029.1 |
| 20260509142649 | 4 | 353 | 1.6 | 1.6 | 0.00 | 0.00 | 0.00 | 56 | 1022.3 |
| 20260509142505 | 4 | 353 | 1.6 | 3.2 | 0.00 | 0.00 | 0.00 | 55 | 1028.9 |
| 20260509142146 | 4 | 353 | 1.6 | 1.6 | 0.00 | 0.00 | 0.00 | 55 | 1022.6 |
| 20260509142006 | 4 | 353 | 3.2 | 4.8 | 0.00 | 0.00 | 0.00 | 55 | 1028.9 |
| 20260509141642 | 4 | 353 | 3.2 | 3.2 | 0.00 | 0.00 | 0.00 | 55 | 1022.3 |
| 20260509141510 | 4 | 353 | 3.2 | 4.8 | 0.00 | 0.00 | 0.00 | 55 | 1029.1 |
| 20260509141138 | 4 | 353 | 1.6 | 1.6 | 0.00 | 0.00 | 0.00 | 54 | 1022.3 |
| 20260509141004 | 4 | 353 | 3.2 | 3.2 | 0.00 | 0.00 | 0.00 | 53 | 1028.9 |
| 20260509140636 | 4 | 353 | 1.6 | 3.2 | 0.00 | 0.00 | 0.00 | 53 | 1022.6 |
| 20260509140505 | 4 | 353 | 1.6 | 3.2 | 0.00 | 0.00 | 0.00 | 53 | 1028.9 |
| 20260509140134 | 4 | 353 | 1.6 | 1.6 | 0.00 | 0.00 | 0.00 | 53 | 1022.2 |
| 20260509140005 | 5 | 353 | 3.2 | 3.2 | 0.00 | 0.00 | 0.00 | 54 | 1028.9 |
| 20260509135630 | 5 | 353 | 0.0 | 1.6 | 0.00 | 0.00 | 0.00 | 52 | 1022.7 |
| 20260509135129 | 5 | 353 | 1.6 | 3.2 | 0.00 | 0.00 | 0.00 | 52 | 1022.1 |
| 20260509135005 | 5 | 353 | 1.6 | 4.8 | 0.00 | 0.00 | 0.00 | 51 | 1028.9 |
| 20260509134625 | 5 | 353 | 0.0 | 3.2 | 0.00 | 0.00 | 0.00 | 50 | 1022.0 |
| 20260509134122 | 5 | 353 | 0.0 | 3.2 | 0.00 | 0.00 | 0.00 | 49 | 1022.1 |
| 20260509134005 | 5 | 353 | 3.2 | 4.8 | 0.00 | 0.00 | 0.00 | 48 | 1028.8 |
| 20260509133620 | 5 | 353 | 3.2 | 3.2 | 0.00 | 0.00 | 0.00 | 48 | 1022.2 |
| 20260509133505 | 5 | 353 | 3.2 | 4.8 | 0.00 | 0.00 | 0.00 | 49 | 1028.6 |
| 20260509133117 | 5 | 353 | 1.6 | 3.2 | 0.00 | 0.00 | 0.00 | 52 | 1022.1 |
| 20260509133005 | 5 | 353 | 3.2 | 4.8 | 0.00 | 0.00 | 0.00 | 52 | 1028.7 |
| 20260509132615 | 5 | 353 | 1.6 | 1.6 | 0.00 | 0.00 | 0.00 | 51 | 1022.3 |
| 20260509132510 | 5 | 353 | 1.6 | 3.2 | 0.00 | 0.00 | 0.00 | 51 | 1028.7 |
| 20260509132113 | 5 | 353 | 1.6 | 1.6 | 0.00 | 0.00 | 0.00 | 49 | 1022.2 |
| 20260509131609 | 5 | 353 | 1.6 | 1.6 | 0.00 | 0.00 | 0.00 | 49 | 1022.2 |
| 20260509131106 | 5 | 353 | 1.6 | 3.2 | 0.00 | 0.00 | 0.00 | 48 | 1021.9 |
| 20260509130602 | 5 | 353 | 1.6 | 3.2 | 0.00 | 0.00 | 0.00 | 48 | 1022.0 |
| 20260509130505 | 5 | 353 | 3.2 | 4.8 | 0.00 | 0.00 | 0.00 | 48 | 1028.5 |
| 20260509130058 | 5 | 353 | 3.2 | 3.2 | 0.00 | 0.00 | 0.00 | 48 | 1022.0 |
| 20260509130006 | 5 | 353 | 4.8 | 4.8 | 0.00 | 0.00 | 0.00 | 48 | 1028.5 |
| 20260509125555 | 5 | 359 | 1.6 | 3.2 | 0.00 | 0.00 | 0.00 | 49 | 1022.0 |
| 20260509125051 | 5 | 20 | 3.2 | 3.2 | 0.00 | 0.00 | 0.00 | 51 | 1022.0 |
| 20260509125005 | 5 | 20 | 3.2 | 4.8 | 0.00 | 0.00 | 0.00 | 51 | 1028.5 |
| 20260509124548 | 5 | 23 | 1.6 | 1.6 | 0.00 | 0.00 | 0.00 | 48 | 1021.8 |
| 20260509124045 | 5 | 21 | 0.0 | 1.6 | 0.00 | 0.00 | 0.00 | 51 | 1021.9 |
| 20260509124007 | 5 | 21 | 1.6 | 3.2 | 0.00 | 0.00 | 0.00 | 51 | 1028.4 |
| 20260509123543 | 6 | 21 | 0.0 | 1.6 | 0.00 | 0.00 | 0.00 | 49 | 1021.6 |
| 20260509123039 | 6 | 21 | 1.6 | 1.6 | 0.00 | 0.00 | 0.00 | 46 | 1021.5 |
| 20260509123004 | 6 | 21 | 3.2 | 3.2 | 0.00 | 0.00 | 0.00 | 46 | 1028.3 |
| 20260509122536 | 6 | 21 | 0.0 | 1.6 | 0.00 | 0.00 | 0.00 | 48 | 1021.6 |
| 20260509122033 | 6 | 353 | 1.6 | 1.6 | 0.00 | 0.00 | 0.00 | 50 | 1021.8 |
| 20260509122010 | 6 | 353 | 3.2 | 3.2 | 0.00 | 0.00 | 0.00 | 50 | 1028.3 |
| 20260509121529 | 6 | 352 | 1.6 | 1.6 | 0.00 | 0.00 | 0.00 | 49 | 1021.6 |
| 20260509121027 | 6 | 353 | 1.6 | 3.2 | 0.00 | 0.00 | 0.00 | 47 | 1021.6 |
| 20260509121006 | 6 | 353 | 3.2 | 4.8 | 0.00 | 0.00 | 0.00 | 47 | 1028.1 |
| 20260509120525 | 6 | 353 | 1.6 | 3.2 | 0.00 | 0.00 | 0.00 | 47 | 1021.6 |
| 20260509120023 | 6 | 353 | 1.6 | 3.2 | 0.00 | 0.00 | 0.00 | 45 | 1021.8 |
| 20260509120005 | 6 | 4 | 3.2 | 4.8 | 0.00 | 0.00 | 0.00 | 45 | 1028.3 |
| 20260509115519 | 6 | 32 | 1.6 | 3.2 | 0.00 | 0.00 | 0.00 | 46 | 1021.5 |
| 20260509115506 | 7 | 33 | 3.2 | 4.8 | 0.00 | 0.00 | 0.00 | 46 | 1028.1 |
| 20260509115018 | 7 | 36 | 1.6 | 3.2 | 0.00 | 0.00 | 0.00 | 47 | 1021.7 |
| 20260509115004 | 7 | 24 | 3.2 | 4.8 | 0.00 | 0.00 | 0.00 | 46 | 1028.2 |
| 20260509114515 | 7 | 349 | 0.0 | 1.6 | 0.00 | 0.00 | 0.00 | 46 | 1021.9 |
| 20260509114505 | 7 | 349 | 0.0 | 3.2 | 0.00 | 0.00 | 0.00 | 46 | 1028.1 |
| 20260509114014 | 7 | 349 | 1.6 | 1.6 | 0.00 | 0.00 | 0.00 | 45 | 1021.5 |
| 20260509114005 | 7 | 347 | 3.2 | 4.8 | 0.00 | 0.00 | 0.00 | 44 | 1028.0 |
| 20260509113512 | 7 | 346 | 0.0 | 1.6 | 0.00 | 0.00 | 0.00 | 43 | 1021.3 |
| 20260509113010 | 7 | 345 | 3.2 | 3.2 | 0.00 | 0.00 | 0.00 | 41 | 1021.3 |
| 20260509112506 | 7 | 345 | 1.6 | 3.2 | 0.00 | 0.00 | 0.00 | 39 | 1021.2 |
| 20260509112504 | 7 | 345 | 3.2 | 4.8 | 0.00 | 0.00 | 0.00 | 39 | 1027.8 |
| 20260509112002 | 7 | 345 | 0.0 | 3.2 | 0.00 | 0.00 | 0.00 | 38 | 1021.0 |
| 20260509111505 | 7 | 345 | 1.6 | 4.8 | 0.00 | 0.00 | 0.00 | 37 | 1027.6 |
| 20260509111500 | 7 | 345 | 1.6 | 3.2 | 0.00 | 0.00 | 0.00 | 37 | 1021.0 |
| 20260509111005 | 7 | 357 | 3.2 | 4.8 | 0.00 | 0.00 | 0.00 | 36 | 1027.7 |
| 20260509110957 | 7 | 357 | 1.6 | 3.2 | 0.00 | 0.00 | 0.00 | 36 | 1021.1 |
| 20260509110453 | 7 | 27 | 1.6 | 3.2 | 0.00 | 0.00 | 0.00 | 38 | 1020.7 |
| 20260509110006 | 7 | 28 | 3.2 | 3.2 | 0.00 | 0.00 | 0.00 | 36 | 1027.3 |
| 20260509105951 | 7 | 28 | 1.6 | 1.6 | 0.00 | 0.00 | 0.00 | 36 | 1020.7 |
| 20260509105449 | 7 | 27 | 1.6 | 1.6 | 0.00 | 0.00 | 0.00 | 40 | 1020.6 |
| 20260509105005 | 7 | 26 | 4.8 | 4.8 | 0.00 | 0.00 | 0.00 | 37 | 1027.2 |
| 20260509104946 | 7 | 26 | 3.2 | 3.2 | 0.00 | 0.00 | 0.00 | 37 | 1020.6 |
| 20260509104443 | 7 | 33 | 1.6 | 1.6 | 0.00 | 0.00 | 0.00 | 36 | 1020.5 |
| 20260509103940 | 8 | 33 | 0.0 | 1.6 | 0.00 | 0.00 | 0.00 | 36 | 1020.6 |
| 20260509103438 | 8 | 47 | 0.0 | 1.6 | 0.00 | 0.00 | 0.00 | 33 | 1020.6 |
| 20260509103005 | 8 | 36 | 1.6 | 4.8 | 0.00 | 0.00 | 0.00 | 33 | 1027.1 |
| 20260509102936 | 8 | 36 | 0.0 | 3.2 | 0.00 | 0.00 | 0.00 | 33 | 1020.5 |
| 20260509102433 | 8 | 37 | 1.6 | 3.2 | 0.00 | 0.00 | 0.00 | 31 | 1019.9 |
| 20260509101928 | 9 | 326 | 1.6 | 1.6 | 0.00 | 0.00 | 0.00 | 31 | 1020.0 |
| 20260509101425 | 9 | 326 | 1.6 | 3.2 | 0.00 | 0.00 | 0.00 | 30 | 1019.9 |
| 20260509100923 | 10 | 325 | 0.0 | 0.0 | 0.00 | 0.00 | 0.00 | 26 | 1019.8 |
| 20260509100420 | 10 | 326 | 0.0 | 1.6 | 0.00 | 0.00 | 0.00 | 27 | 1019.8 |
| 20260509095916 | 10 | 326 | 1.6 | 1.6 | 0.00 | 0.00 | 0.00 | 28 | 1019.5 |
| 20260509095504 | 10 | 325 | 0.0 | 0.0 | 0.00 | 0.00 | 0.00 | 25 | 1026.2 |
| 20260509095414 | 10 | 325 | 0.0 | 0.0 | 0.00 | 0.00 | 0.00 | 25 | 1019.5 |
| 20260509094910 | 11 | 290 | 0.0 | 1.6 | 0.00 | 0.00 | 0.00 | 22 | 1019.6 |
| 20260509094505 | 11 | 290 | 1.6 | 3.2 | 0.00 | 0.00 | 0.00 | 22 | 1026.1 |
| 20260509094407 | 11 | 290 | 0.0 | 1.6 | 0.00 | 0.00 | 0.00 | 22 | 1019.1 |
| 20260509094004 | 11 | 291 | 3.2 | 3.2 | 0.00 | 0.00 | 0.00 | 23 | 1026.0 |
| 20260509093905 | 11 | 291 | 0.0 | 3.2 | 0.00 | 0.00 | 0.00 | 22 | 1018.9 |
| 20260509093505 | 11 | 324 | 3.2 | 4.8 | 0.00 | 0.00 | 0.00 | 23 | 1025.9 |
| 20260509093402 | 11 | 326 | 0.0 | 1.6 | 0.00 | 0.00 | 0.00 | 22 | 1019.4 |
| 20260509093005 | 11 | 315 | 1.6 | 4.8 | 0.00 | 0.00 | 0.00 | 20 | 1025.8 |
| 20260509092900 | 11 | 315 | 1.6 | 1.6 | 0.00 | 0.00 | 0.00 | 22 | 1019.1 |
| 20260509092504 | 12 | 314 | 1.6 | 3.2 | 0.00 | 0.00 | 0.00 | 21 | 1025.6 |
| 20260509092357 | 12 | 314 | 0.0 | 1.6 | 0.00 | 0.00 | 0.00 | 20 | 1018.9 |
| 20260509092005 | 12 | 313 | 0.0 | 3.2 | 0.00 | 0.00 | 0.00 | 19 | 1025.7 |
| 20260509091856 | 12 | 313 | 0.0 | 1.6 | 0.00 | 0.00 | 0.00 | 18 | 1018.9 |
| 20260509091504 | 12 | 300 | 1.6 | 4.8 | 0.00 | 0.00 | 0.00 | 16 | 1025.6 |
| 20260509091352 | 12 | 325 | 3.2 | 4.8 | 0.00 | 0.00 | 0.00 | 16 | 1018.7 |
| 20260509091005 | 12 | 316 | 1.6 | 3.2 | 0.00 | 0.00 | 0.00 | 16 | 1025.7 |
| 20260509090850 | 12 | 315 | 0.0 | 1.6 | 0.00 | 0.00 | 0.00 | 16 | 1018.8 |
| 20260509090347 | 12 | 338 | 3.2 | 9.7 | 0.00 | 0.00 | 0.00 | 15 | 1018.5 |
| 20260509090005 | 12 | 235 | 0.0 | 3.2 | 0.00 | 0.00 | 0.00 | 19 | 1025.2 |
| 20260509085844 | 12 | 235 | 0.0 | 1.6 | 0.00 | 0.00 | 0.00 | 19 | 1018.6 |
| 20260509085504 | 13 | 294 | 3.2 | 4.8 | 0.00 | 0.00 | 0.00 | 15 | 1025.2 |
| 20260509085341 | 13 | 279 | 3.2 | 3.2 | 0.00 | 0.00 | 0.00 | 16 | 1018.5 |
| 20260509085005 | 13 | 285 | 3.2 | 4.8 | 0.00 | 0.00 | 0.00 | 15 | 1025.3 |
| 20260509084838 | 13 | 312 | 1.6 | 3.2 | 0.00 | 0.00 | 0.00 | 15 | 1018.3 |
| 20260509084335 | 13 | 277 | 0.0 | 1.6 | 0.00 | 0.00 | 0.00 | 16 | 1018.5 |
| 20260509084005 | 13 | 289 | 3.2 | 6.4 | 0.00 | 0.00 | 0.00 | 15 | 1025.1 |
| 20260509083833 | 13 | 308 | 1.6 | 9.7 | 0.00 | 0.00 | 0.00 | 15 | 1018.7 |
| 20260509083329 | 13 | 294 | 1.6 | 4.8 | 0.00 | 0.00 | 0.00 | 16 | 1018.5 |
| 20260509083004 | 13 | 278 | 3.2 | 6.4 | 0.00 | 0.00 | 0.00 | 18 | 1025.3 |
| 20260509082826 | 13 | 297 | 0.0 | 3.2 | 0.00 | 0.00 | 0.00 | 17 | 1018.6 |
| 20260509082505 | 13 | 314 | 1.6 | 4.8 | 0.00 | 0.00 | 0.00 | 16 | 1025.4 |
| 20260509082322 | 13 | 303 | 1.6 | 3.2 | 0.00 | 0.00 | 0.00 | 18 | 1018.4 |
| 20260509082004 | 13 | 296 | 6.4 | 8.0 | 0.00 | 0.00 | 0.00 | 16 | 1025.1 |
| 20260509081820 | 13 | 289 | 3.2 | 4.8 | 0.00 | 0.00 | 0.00 | 17 | 1018.4 |
| 20260509081316 | 13 | 277 | 0.0 | 3.2 | 0.00 | 0.00 | 0.00 | 16 | 1018.4 |
| 20260509081005 | 13 | 292 | 3.2 | 4.8 | 0.00 | 0.00 | 0.00 | 17 | 1025.3 |
| 20260509080815 | 13 | 271 | 1.6 | 3.2 | 0.00 | 0.00 | 0.00 | 18 | 1018.3 |
| 20260509080312 | 13 | 275 | 1.6 | 9.7 | 0.00 | 0.00 | 0.00 | 17 | 1018.1 |
| 20260509080004 | 13 | 272 | 3.2 | 6.4 | 0.00 | 0.00 | 0.00 | 17 | 1025.0 |
| 20260509075810 | 13 | 313 | 1.6 | 3.2 | 0.00 | 0.00 | 0.00 | 16 | 1018.0 |
| 20260509075505 | 13 | 349 | 4.8 | 9.7 | 0.00 | 0.00 | 0.00 | 16 | 1024.8 |
| 20260509075307 | 14 | 268 | 6.4 | 8.0 | 0.00 | 0.00 | 0.00 | 18 | 1018.1 |
| 20260509075004 | 14 | 305 | 3.2 | 3.2 | 0.00 | 0.00 | 0.00 | 17 | 1024.9 |
| 20260509074804 | 14 | 338 | 3.2 | 4.8 | 0.00 | 0.00 | 0.00 | 17 | 1017.8 |
| 20260509074505 | 14 | 340 | 0.0 | 3.2 | 0.00 | 0.00 | 0.00 | 18 | 1025.0 |
| 20260509074302 | 13 | 286 | 1.6 | 4.8 | 0.00 | 0.00 | 0.00 | 16 | 1018.0 |
| 20260509074004 | 13 | 354 | 4.8 | 6.4 | 0.00 | 0.00 | 0.00 | 16 | 1024.8 |
| 20260509073758 | 14 | 357 | 1.6 | 9.7 | 0.00 | 0.00 | 0.00 | 16 | 1018.4 |
| 20260509073505 | 14 | 290 | 4.8 | 9.7 | 0.00 | 0.00 | 0.00 | 15 | 1025.0 |
| 20260509073254 | 14 | 291 | 3.2 | 4.8 | 0.00 | 0.00 | 0.00 | 15 | 1017.8 |
| 20260509073015 | 14 | 353 | 4.8 | 6.4 | 0.00 | 0.00 | 0.00 | 15 | 1024.9 |
| 20260509072751 | 14 | 314 | 3.2 | 4.8 | 0.00 | 0.00 | 0.00 | 17 | 1017.9 |
| 20260509072505 | 14 | 264 | 1.6 | 4.8 | 0.00 | 0.00 | 0.00 | 17 | 1024.8 |
| 20260509072248 | 14 | 310 | 0.0 | 9.7 | 0.00 | 0.00 | 0.00 | 16 | 1017.7 |
| 20260509072005 | 14 | 267 | 4.8 | 8.0 | 0.00 | 0.00 | 0.00 | 16 | 1024.8 |
| 20260509071744 | 14 | 21 | 4.8 | 8.0 | 0.00 | 0.00 | 0.00 | 15 | 1017.5 |
| 20260509071505 | 14 | 293 | 8.0 | 11.3 | 0.00 | 0.00 | 0.00 | 14 | 1024.6 |
| 20260509071242 | 14 | 263 | 6.4 | 8.0 | 0.00 | 0.00 | 0.00 | 14 | 1017.4 |
| 20260509071004 | 14 | 249 | 6.4 | 8.0 | 0.00 | 0.00 | 0.00 | 14 | 1024.5 |
| 20260509070738 | 14 | 278 | 4.8 | 8.0 | 0.00 | 0.00 | 0.00 | 14 | 1017.6 |
| 20260509070235 | 14 | 268 | 3.2 | 9.7 | 0.00 | 0.00 | 0.00 | 14 | 1017.7 |
| 20260509070005 | 14 | 323 | 3.2 | 9.7 | 0.00 | 0.00 | 0.00 | 13 | 1024.6 |
| 20260509065731 | 14 | 103 | 3.2 | 11.3 | 0.00 | 0.00 | 0.00 | 13 | 1017.6 |
| 20260509065228 | 14 | 272 | 6.4 | 9.7 | 0.00 | 0.00 | 0.00 | 13 | 1017.4 |
| 20260509065005 | 14 | 222 | 1.6 | 6.4 | 0.00 | 0.00 | 0.00 | 14 | 1024.5 |
| 20260509064724 | 14 | 322 | 8.0 | 9.7 | 0.00 | 0.00 | 0.00 | 12 | 1017.4 |
| 20260509064505 | 14 | 7 | 4.8 | 6.4 | 0.00 | 0.00 | 0.00 | 14 | 1024.3 |
| 20260509064222 | 14 | 309 | 3.2 | 9.7 | 0.00 | 0.00 | 0.00 | 14 | 1017.4 |
| 20260509063719 | 15 | 274 | 8.0 | 9.7 | 0.00 | 0.00 | 0.00 | 14 | 1017.4 |
| 20260509063504 | 15 | 278 | 9.7 | 11.3 | 0.00 | 0.00 | 0.00 | 13 | 1024.3 |
| 20260509063215 | 15 | 226 | 1.6 | 4.8 | 0.00 | 0.00 | 0.00 | 14 | 1017.5 |
| 20260509063004 | 15 | 322 | 3.2 | 8.0 | 0.00 | 0.00 | 0.00 | 13 | 1024.3 |
| 20260509062713 | 15 | 286 | 8.0 | 11.3 | 0.00 | 0.00 | 0.00 | 12 | 1017.3 |
| 20260509062505 | 15 | 310 | 6.4 | 9.7 | 0.00 | 0.00 | 0.00 | 13 | 1024.2 |
| 20260509062210 | 15 | 320 | 4.8 | 9.7 | 0.00 | 0.00 | 0.00 | 13 | 1017.4 |
| 20260509061707 | 15 | 330 | 3.2 | 4.8 | 0.00 | 0.00 | 0.00 | 13 | 1017.2 |
| 20260509061204 | 15 | 295 | 4.8 | 8.0 | 0.00 | 0.00 | 0.00 | 12 | 1017.4 |
| 20260509061004 | 15 | 311 | 1.6 | 9.7 | 0.00 | 0.00 | 0.00 | 12 | 1024.3 |
| 20260509060701 | 15 | 222 | 1.6 | 9.7 | 0.00 | 0.00 | 0.00 | 13 | 1017.5 |
| 20260509060505 | 15 | 274 | 3.2 | 6.4 | 0.00 | 0.00 | 0.00 | 12 | 1024.2 |
| 20260509060158 | 15 | 268 | 3.2 | 9.7 | 0.00 | 0.00 | 0.00 | 12 | 1017.4 |
| 20260509060005 | 15 | 276 | 6.4 | 11.3 | 0.00 | 0.00 | 0.00 | 12 | 1024.3 |
| 20260509055654 | 15 | 263 | 8.0 | 12.9 | 0.00 | 0.00 | 0.00 | 12 | 1017.3 |
| 20260509055505 | 15 | 268 | 4.8 | 8.0 | 0.00 | 0.00 | 0.00 | 13 | 1024.1 |
| 20260509055149 | 15 | 341 | 0.0 | 8.0 | 0.00 | 0.00 | 0.00 | 13 | 1017.4 |
| 20260509055004 | 15 | 246 | 8.0 | 17.7 | 0.00 | 0.00 | 0.00 | 12 | 1024.5 |
| 20260509054646 | 15 | 291 | 1.6 | 4.8 | 0.00 | 0.00 | 0.00 | 14 | 1017.4 |
| 20260509054505 | 15 | 234 | 3.2 | 4.8 | 0.00 | 0.00 | 0.00 | 14 | 1024.1 |
| 20260509054144 | 15 | 293 | 3.2 | 11.3 | 0.00 | 0.00 | 0.00 | 15 | 1017.4 |
| 20260509053642 | 15 | 226 | 3.2 | 9.7 | 0.00 | 0.00 | 0.00 | 13 | 1017.4 |
| 20260509053138 | 15 | 323 | 1.6 | 4.8 | 0.00 | 0.00 | 0.00 | 13 | 1017.4 |
| 20260509053005 | 15 | 250 | 1.6 | 9.7 | 0.00 | 0.00 | 0.00 | 16 | 1024.1 |
| 20260509052636 | 15 | 7 | 6.4 | 12.9 | 0.00 | 0.00 | 0.00 | 14 | 1017.5 |
| 20260509052504 | 15 | 319 | 6.4 | 9.7 | 0.00 | 0.00 | 0.00 | 14 | 1024.4 |
| 20260509052134 | 15 | 257 | 6.4 | 8.0 | 0.00 | 0.00 | 0.00 | 14 | 1017.3 |
| 20260509052005 | 15 | 345 | 3.2 | 8.0 | 0.00 | 0.00 | 0.00 | 15 | 1024.4 |
| 20260509051631 | 15 | 278 | 4.8 | 9.7 | 0.00 | 0.00 | 0.00 | 16 | 1017.5 |
| 20260509051128 | 15 | 342 | 4.8 | 8.0 | 0.00 | 0.00 | 0.00 | 15 | 1017.4 |
| 20260509050626 | 15 | 316 | 6.4 | 9.7 | 0.00 | 0.00 | 0.00 | 14 | 1017.4 |
| 20260509050505 | 15 | 284 | 6.4 | 11.3 | 0.00 | 0.00 | 0.00 | 13 | 1024.4 |
| 20260509050122 | 15 | 330 | 1.6 | 8.0 | 0.00 | 0.00 | 0.00 | 13 | 1017.3 |
| 20260509050005 | 15 | 286 | 4.8 | 11.3 | 0.00 | 0.00 | 0.00 | 14 | 1024.3 |
| 20260509045620 | 15 | 278 | 3.2 | 4.8 | 0.00 | 0.00 | 0.00 | 16 | 1017.2 |
| 20260509045505 | 15 | 2 | 1.6 | 6.4 | 0.00 | 0.00 | 0.00 | 17 | 1024.4 |
| 20260509045116 | 14 | 26 | 4.8 | 4.8 | 0.00 | 0.00 | 0.00 | 15 | 1017.2 |
| 20260509044613 | 15 | 337 | 1.6 | 9.7 | 0.00 | 0.00 | 0.00 | 15 | 1017.5 |
| 20260509044111 | 15 | 271 | 1.6 | 4.8 | 0.00 | 0.00 | 0.00 | 17 | 1017.4 |
| 20260509044005 | 15 | 274 | 3.2 | 6.4 | 0.00 | 0.00 | 0.00 | 17 | 1024.3 |
| 20260509043607 | 15 | 13 | 1.6 | 4.8 | 0.00 | 0.00 | 0.00 | 16 | 1017.3 |
| 20260509043103 | 15 | 308 | 1.6 | 9.7 | 0.00 | 0.00 | 0.00 | 16 | 1017.2 |
| 20260509043005 | 15 | 267 | 4.8 | 9.7 | 0.00 | 0.00 | 0.00 | 16 | 1024.0 |
| 20260509042559 | 16 | 299 | 4.8 | 9.7 | 0.00 | 0.00 | 0.00 | 15 | 1017.4 |
| 20260509042504 | 16 | 315 | 6.4 | 9.7 | 0.00 | 0.00 | 0.00 | 15 | 1024.4 |
| 20260509042055 | 16 | 90 | 1.6 | 4.8 | 0.00 | 0.00 | 0.00 | 16 | 1017.3 |
| 20260509042004 | 16 | 283 | 1.6 | 6.4 | 0.00 | 0.00 | 0.00 | 17 | 1024.4 |
| 20260509041552 | 16 | 237 | 6.4 | 12.9 | 0.00 | 0.00 | 0.00 | 19 | 1017.0 |
| 20260509041505 | 16 | 13 | 4.8 | 9.7 | 0.00 | 0.00 | 0.00 | 17 | 1024.4 |
| 20260509041050 | 15 | 285 | 8.0 | 11.3 | 0.00 | 0.00 | 0.00 | 17 | 1017.6 |
| 20260509040548 | 16 | 315 | 6.4 | 11.3 | 0.00 | 0.00 | 0.00 | 16 | 1017.4 |
| 20260509040505 | 16 | 311 | 6.4 | 9.7 | 0.00 | 0.00 | 0.00 | 14 | 1024.3 |
| 20260509040044 | 15 | 284 | 3.2 | 11.3 | 0.00 | 0.00 | 0.00 | 16 | 1017.6 |
| 20260509040005 | 15 | 284 | 4.8 | 11.3 | 0.00 | 0.00 | 0.00 | 16 | 1024.5 |
| 20260509035541 | 16 | 221 | 6.4 | 17.7 | 0.00 | 0.00 | 0.00 | 18 | 1017.7 |
| 20260509035038 | 16 | 268 | 3.2 | 14.5 | 0.00 | 0.00 | 0.00 | 18 | 1017.3 |
| 20260509034536 | 16 | 283 | 3.2 | 9.7 | 0.00 | 0.00 | 0.00 | 17 | 1017.0 |
| 20260509034033 | 16 | 223 | 4.8 | 11.3 | 0.00 | 0.00 | 0.00 | 18 | 1017.2 |
| 20260509034004 | 16 | 212 | 6.4 | 8.0 | 0.00 | 0.00 | 0.00 | 18 | 1024.1 |
| 20260509033530 | 16 | 305 | 4.8 | 9.7 | 0.00 | 0.00 | 0.00 | 20 | 1017.4 |
| 20260509033027 | 16 | 274 | 3.2 | 11.3 | 0.00 | 0.00 | 0.00 | 20 | 1017.3 |
| 20260509033005 | 16 | 313 | 4.8 | 14.5 | 0.00 | 0.00 | 0.00 | 19 | 1024.2 |
| 20260509032524 | 16 | 328 | 6.4 | 14.5 | 0.00 | 0.00 | 0.00 | 22 | 1017.3 |
| 20260509032504 | 16 | 328 | 6.4 | 16.1 | 0.00 | 0.00 | 0.00 | 22 | 1024.2 |
| 20260509032021 | 16 | 225 | 4.8 | 9.7 | 0.00 | 0.00 | 0.00 | 21 | 1017.3 |
| 20260509031519 | 16 | 225 | 9.7 | 11.3 | 0.00 | 0.00 | 0.00 | 22 | 1017.2 |
| 20260509031016 | 16 | 283 | 4.8 | 9.7 | 0.00 | 0.00 | 0.00 | 22 | 1017.4 |
| 20260509030514 | 15 | 285 | 6.4 | 9.7 | 0.00 | 0.00 | 0.00 | 23 | 1017.5 |
| 20260509030010 | 15 | 249 | 3.2 | 11.3 | 0.00 | 0.00 | 0.00 | 21 | 1017.5 |
| 20260509030005 | 15 | 249 | 3.2 | 11.3 | 0.00 | 0.00 | 0.00 | 21 | 1024.4 |
| 20260509025506 | 15 | 288 | 6.4 | 12.9 | 0.00 | 0.00 | 0.00 | 23 | 1017.5 |
| 20260509025002 | 15 | 345 | 11.3 | 12.9 | 0.00 | 0.00 | 0.00 | 24 | 1017.6 |
| 20260509024458 | 15 | 311 | 3.2 | 8.0 | 0.00 | 0.00 | 0.00 | 25 | 1017.3 |
| 20260509023955 | 16 | 130 | 1.6 | 3.2 | 0.00 | 0.00 | 0.00 | 22 | 1017.5 |
| 20260509023505 | 16 | 309 | 1.6 | 8.0 | 0.00 | 0.00 | 0.00 | 23 | 1024.4 |
| 20260509023452 | 16 | 309 | 1.6 | 8.0 | 0.00 | 0.00 | 0.00 | 23 | 1017.5 |
| 20260509023005 | 14 | 286 | 4.8 | 9.7 | 0.00 | 0.00 | 0.00 | 26 | 1024.4 |
| 20260509022949 | 14 | 286 | 3.2 | 9.7 | 0.00 | 0.00 | 0.00 | 26 | 1017.5 |
| 20260509022504 | 15 | 237 | 3.2 | 6.4 | 0.00 | 0.00 | 0.00 | 25 | 1024.3 |
| 20260509022446 | 15 | 237 | 3.2 | 4.8 | 0.00 | 0.00 | 0.00 | 25 | 1017.4 |
| 20260509022005 | 15 | 298 | 8.0 | 8.0 | 0.00 | 0.00 | 0.00 | 22 | 1024.4 |
| 20260509021943 | 15 | 298 | 8.0 | 8.0 | 0.00 | 0.00 | 0.00 | 22 | 1017.5 |
| 20260509021504 | 15 | 273 | 4.8 | 11.3 | 0.00 | 0.00 | 0.00 | 25 | 1024.6 |
| 20260509021440 | 15 | 273 | 4.8 | 11.3 | 0.00 | 0.00 | 0.00 | 25 | 1017.7 |
| 20260509021005 | 15 | 252 | 8.0 | 14.5 | 0.00 | 0.00 | 0.00 | 27 | 1024.4 |
| 20260509020937 | 15 | 252 | 8.0 | 12.9 | 0.00 | 0.00 | 0.00 | 27 | 1017.5 |
| 20260509020436 | 15 | 290 | 6.4 | 8.0 | 0.00 | 0.00 | 0.00 | 26 | 1017.3 |
| 20260509020004 | 15 | 288 | 3.2 | 17.7 | 0.00 | 0.00 | 0.00 | 26 | 1024.4 |
| 20260509015932 | 15 | 288 | 3.2 | 16.1 | 0.00 | 0.00 | 0.00 | 26 | 1017.5 |
| 20260509015431 | 13 | 186 | 4.8 | 8.0 | 0.00 | 0.00 | 0.00 | 31 | 1017.7 |
| 20260509015005 | 14 | 249 | 8.0 | 19.3 | 0.00 | 0.00 | 0.00 | 28 | 1024.6 |
| 20260509014927 | 14 | 198 | 3.2 | 11.3 | 0.00 | 0.00 | 0.00 | 28 | 1017.8 |
| 20260509014424 | 15 | 281 | 8.0 | 11.3 | 0.00 | 0.00 | 0.00 | 28 | 1017.7 |
| 20260509013920 | 15 | 358 | 4.8 | 8.0 | 0.00 | 0.00 | 0.00 | 30 | 1017.3 |
| 20260509013417 | 14 | 296 | 4.8 | 12.9 | 0.00 | 0.00 | 0.00 | 30 | 1017.6 |
| 20260509013005 | 13 | 258 | 1.6 | 14.5 | 0.00 | 0.00 | 0.00 | 30 | 1024.4 |
| 20260509012913 | 15 | 249 | 3.2 | 12.9 | 0.00 | 0.00 | 0.00 | 29 | 1017.6 |
| 20260509012504 | 15 | 288 | 1.6 | 4.8 | 0.00 | 0.00 | 0.00 | 28 | 1024.3 |
| 20260509012410 | 15 | 293 | 3.2 | 3.2 | 0.00 | 0.00 | 0.00 | 29 | 1017.5 |
| 20260509011907 | 13 | 334 | 1.6 | 9.7 | 0.00 | 0.00 | 0.00 | 31 | 1017.6 |
| 20260509011505 | 13 | 264 | 4.8 | 8.0 | 0.00 | 0.00 | 0.00 | 31 | 1024.5 |
| 20260509011404 | 13 | 253 | 3.2 | 8.0 | 0.00 | 0.00 | 0.00 | 32 | 1017.5 |
| 20260509011004 | 13 | 273 | 1.6 | 4.8 | 0.00 | 0.00 | 0.00 | 35 | 1024.4 |
| 20260509010902 | 12 | 276 | 1.6 | 4.8 | 0.00 | 0.00 | 0.00 | 37 | 1017.5 |
| 20260509010359 | 13 | 324 | 8.0 | 9.7 | 0.00 | 0.00 | 0.00 | 34 | 1017.6 |
| 20260509010005 | 13 | 260 | 3.2 | 9.7 | 0.00 | 0.00 | 0.00 | 36 | 1024.4 |
| 20260509005856 | 13 | 303 | 4.8 | 9.7 | 0.00 | 0.00 | 0.00 | 35 | 1017.5 |
| 20260509005510 | 12 | 222 | 3.2 | 8.0 | 0.00 | 0.00 | 0.00 | 38 | 1024.4 |
| 20260509005354 | 12 | 319 | 1.6 | 8.0 | 0.00 | 0.00 | 0.00 | 36 | 1017.5 |
| 20260509005005 | 13 | 265 | 4.8 | 9.7 | 0.00 | 0.00 | 0.00 | 36 | 1024.4 |
| 20260509004849 | 13 | 279 | 3.2 | 8.0 | 0.00 | 0.00 | 0.00 | 36 | 1017.3 |
| 20260509004505 | 13 | 320 | 3.2 | 6.4 | 0.00 | 0.00 | 0.00 | 35 | 1024.2 |
| 20260509004346 | 13 | 259 | 4.8 | 4.8 | 0.00 | 0.00 | 0.00 | 34 | 1017.3 |
| 20260509003843 | 13 | 259 | 1.6 | 4.8 | 0.00 | 0.00 | 0.00 | 34 | 1017.5 |
| 20260509003505 | 12 | 353 | 4.8 | 11.3 | 0.00 | 0.00 | 0.00 | 33 | 1024.4 |
| 20260509003341 | 12 | 283 | 6.4 | 11.3 | 0.00 | 0.00 | 0.00 | 32 | 1017.3 |
| 20260509003004 | 13 | 281 | 4.8 | 9.7 | 0.00 | 0.00 | 0.00 | 31 | 1024.2 |
| 20260509002838 | 13 | 280 | 4.8 | 9.7 | 0.00 | 0.00 | 0.00 | 32 | 1017.2 |
| 20260509002335 | 12 | 272 | 3.2 | 8.0 | 0.00 | 0.00 | 0.00 | 34 | 1017.2 |
| 20260509002005 | 13 | 330 | 3.2 | 8.0 | 0.00 | 0.00 | 0.00 | 33 | 1024.0 |
| 20260509001833 | 13 | 357 | 1.6 | 8.0 | 0.00 | 0.00 | 0.00 | 34 | 1017.0 |
| 20260509001505 | 12 | 86 | 1.6 | 6.4 | 0.00 | 0.00 | 0.00 | 35 | 1023.9 |
| 20260509001329 | 12 | 252 | 3.2 | 14.5 | 0.00 | 0.00 | 0.00 | 35 | 1017.2 |
| 20260509001004 | 12 | 321 | 4.8 | 9.7 | 0.00 | 0.00 | 0.00 | 34 | 1024.0 |
| 20260509000826 | 11 | 311 | 1.6 | 11.3 | 0.00 | 0.00 | 0.00 | 36 | 1016.8 |
| 20260509000505 | 11 | 221 | 6.4 | 9.7 | 0.00 | 0.00 | 0.00 | 39 | 1024.1 |
| 20260509000325 | 11 | 271 | 3.2 | 9.7 | 0.00 | 0.00 | 0.00 | 39 | 1017.0 |
| 20260509000005 | 11 | 277 | 4.8 | 6.4 | 0.00 | 0.00 | 0.00 | 38 | 1024.2 |
| 20260508235820 | 11 | 285 | 1.6 | 12.9 | 0.00 | 0.00 | 0.00 | 38 | 1016.9 |
| 20260508235505 | 11 | 276 | 4.8 | 8.0 | 0.00 | 0.00 | 0.00 | 38 | 1024.0 |
| 20260508235317 | 11 | 213 | 4.8 | 12.9 | 0.00 | 0.00 | 0.00 | 36 | 1016.8 |
| 20260508235004 | 12 | 318 | 6.4 | 9.7 | 0.00 | 0.00 | 0.00 | 37 | 1024.0 |
| 20260508234814 | 12 | 314 | 9.7 | 12.9 | 0.00 | 0.00 | 0.00 | 35 | 1016.8 |
| 20260508234505 | 12 | 296 | 8.0 | 11.3 | 0.00 | 0.00 | 0.00 | 35 | 1023.7 |
| 20260508234310 | 12 | 337 | 1.6 | 4.8 | 0.00 | 0.00 | 0.00 | 36 | 1016.7 |
| 20260508233809 | 11 | 221 | 0.0 | 8.0 | 0.00 | 0.00 | 0.00 | 40 | 1016.3 |
| 20260508233504 | 11 | 9 | 3.2 | 9.7 | 0.00 | 0.00 | 0.00 | 39 | 1023.5 |
| 20260508233308 | 11 | 345 | 3.2 | 12.9 | 0.00 | 0.00 | 0.00 | 40 | 1016.4 |
| 20260508233005 | 11 | 324 | 9.7 | 17.7 | 0.00 | 0.00 | 0.00 | 38 | 1023.3 |
| 20260508232805 | 12 | 317 | 4.8 | 12.9 | 0.00 | 0.00 | 0.00 | 39 | 1016.2 |
| 20260508232504 | 12 | 218 | 4.8 | 8.0 | 0.00 | 0.00 | 0.00 | 40 | 1023.1 |
| 20260508232301 | 12 | 215 | 1.6 | 1.6 | 0.00 | 0.00 | 0.00 | 40 | 1015.9 |
| 20260508232005 | 12 | 263 | 6.4 | 8.0 | 0.00 | 0.00 | 0.00 | 40 | 1023.1 |
| 20260508231800 | 12 | 280 | 1.6 | 8.0 | 0.00 | 0.00 | 0.00 | 39 | 1015.9 |
| 20260508231255 | 11 | 171 | 4.8 | 12.9 | 0.00 | 0.00 | 0.00 | 39 | 1015.8 |
| 20260508231005 | 12 | 268 | 4.8 | 16.1 | 0.00 | 0.00 | 0.00 | 36 | 1022.6 |
| 20260508230752 | 12 | 273 | 14.5 | 16.1 | 0.00 | 0.00 | 0.00 | 36 | 1015.4 |
| 20260508230505 | 12 | 119 | 1.6 | 8.0 | 0.00 | 0.00 | 0.00 | 38 | 1022.3 |
| 20260508230248 | 12 | 291 | 1.6 | 11.3 | 0.00 | 0.00 | 0.00 | 40 | 1015.3 |
| 20260508230005 | 11 | 296 | 1.6 | 8.0 | 0.00 | 0.00 | 0.00 | 39 | 1022.5 |
| 20260508225746 | 11 | 281 | 4.8 | 8.0 | 0.00 | 0.00 | 0.00 | 40 | 1015.2 |
| 20260508225505 | 11 | 202 | 6.4 | 17.7 | 0.00 | 0.00 | 0.00 | 40 | 1022.4 |
| 20260508225242 | 11 | 322 | 8.0 | 12.9 | 0.00 | 0.00 | 0.00 | 38 | 1015.4 |
| 20260508225004 | 11 | 310 | 3.2 | 11.3 | 0.00 | 0.00 | 0.00 | 38 | 1022.3 |
| 20260508224741 | 11 | 309 | 4.8 | 8.0 | 0.00 | 0.00 | 0.00 | 39 | 1015.2 |
| 20260508224238 | 11 | 291 | 1.6 | 8.0 | 0.00 | 0.00 | 0.00 | 41 | 1015.2 |
| 20260508224005 | 11 | 295 | 3.2 | 6.4 | 0.00 | 0.00 | 0.00 | 40 | 1022.0 |
| 20260508223735 | 11 | 14 | 3.2 | 4.8 | 0.00 | 0.00 | 0.00 | 40 | 1014.8 |
| 20260508223505 | 11 | 256 | 3.2 | 6.4 | 0.00 | 0.00 | 0.00 | 40 | 1022.0 |
| 20260508223232 | 11 | 266 | 4.8 | 8.0 | 0.00 | 0.00 | 0.00 | 39 | 1014.6 |
| 20260508222730 | 11 | 214 | 4.8 | 8.0 | 0.00 | 0.00 | 0.00 | 39 | 1014.5 |
| 20260508222504 | 11 | 268 | 1.6 | 8.0 | 0.00 | 0.00 | 0.00 | 39 | 1021.9 |
| 20260508222227 | 10 | 220 | 3.2 | 4.8 | 0.00 | 0.00 | 0.00 | 41 | 1014.4 |
| 20260508222004 | 10 | 314 | 3.2 | 6.4 | 0.00 | 0.00 | 0.00 | 39 | 1021.8 |
| 20260508221723 | 10 | 265 | 6.4 | 8.0 | 0.00 | 0.00 | 0.00 | 39 | 1014.2 |
| 20260508221219 | 11 | 258 | 4.8 | 9.7 | 0.00 | 0.00 | 0.00 | 38 | 1014.1 |
| 20260508221004 | 11 | 215 | 4.8 | 8.0 | 0.00 | 0.00 | 0.00 | 38 | 1021.3 |
| 20260508220715 | 10 | 251 | 3.2 | 3.2 | 0.00 | 0.00 | 0.00 | 38 | 1014.0 |
| 20260508220212 | 10 | 251 | 3.2 | 4.8 | 0.00 | 0.00 | 0.00 | 37 | 1014.0 |
| 20260508215709 | 10 | 318 | 1.6 | 8.0 | 0.00 | 0.00 | 0.00 | 38 | 1013.8 |
| 20260508215505 | 10 | 237 | 1.6 | 4.8 | 0.00 | 0.00 | 0.00 | 40 | 1020.9 |
| 20260508215205 | 10 | 274 | 4.8 | 4.8 | 0.00 | 0.00 | 0.00 | 40 | 1013.4 |
| 20260508214702 | 10 | 277 | 4.8 | 8.0 | 0.00 | 0.00 | 0.00 | 41 | 1013.2 |
| 20260508214200 | 10 | 251 | 4.8 | 4.8 | 0.00 | 0.00 | 0.00 | 41 | 1013.4 |
| 20260508213656 | 9 | 246 | 1.6 | 3.2 | 0.00 | 0.00 | 0.00 | 41 | 1013.4 |
| 20260508213505 | 9 | 251 | 1.6 | 6.4 | 0.00 | 0.00 | 0.00 | 40 | 1020.5 |
| 20260508213152 | 9 | 208 | 1.6 | 4.8 | 0.00 | 0.00 | 0.00 | 41 | 1013.0 |
| 20260508213004 | 9 | 205 | 3.2 | 6.4 | 0.00 | 0.00 | 0.00 | 40 | 1020.4 |
| 20260508212649 | 8 | 213 | 0.0 | 3.2 | 0.00 | 0.00 | 0.00 | 41 | 1013.0 |
| 20260508212505 | 8 | 224 | 1.6 | 9.7 | 0.00 | 0.00 | 0.00 | 42 | 1020.2 |
| 20260508212146 | 8 | 250 | 3.2 | 4.8 | 0.00 | 0.00 | 0.00 | 41 | 1012.7 |
| 20260508212004 | 8 | 220 | 0.0 | 4.8 | 0.00 | 0.00 | 0.00 | 42 | 1020.3 |
| 20260508211641 | 8 | 264 | 4.8 | 9.7 | 0.00 | 0.00 | 0.00 | 41 | 1012.9 |
| 20260508211137 | 8 | 272 | 1.6 | 3.2 | 0.00 | 0.00 | 0.00 | 43 | 1012.5 |
| 20260508211005 | 7 | 268 | 3.2 | 4.8 | 0.00 | 0.00 | 0.00 | 44 | 1020.0 |
| 20260508210634 | 7 | 262 | 0.0 | 3.2 | 0.00 | 0.00 | 0.00 | 45 | 1012.3 |
| 20260508210132 | 7 | 265 | 1.6 | 3.2 | 0.00 | 0.00 | 0.00 | 44 | 1012.3 |
| 20260508210005 | 7 | 268 | 3.2 | 4.8 | 0.00 | 0.00 | 0.00 | 45 | 1019.7 |
| 20260508205629 | 7 | 264 | 0.0 | 1.6 | 0.00 | 0.00 | 0.00 | 45 | 1012.3 |
| 20260508205504 | 7 | 280 | 1.6 | 3.2 | 0.00 | 0.00 | 0.00 | 44 | 1019.8 |
| 20260508205125 | 7 | 279 | 1.6 | 3.2 | 0.00 | 0.00 | 0.00 | 44 | 1012.3 |
| 20260508205005 | 7 | 270 | 1.6 | 3.2 | 0.00 | 0.00 | 0.00 | 45 | 1019.7 |
| 20260508204621 | 7 | 279 | 0.0 | 1.6 | 0.00 | 0.00 | 0.00 | 43 | 1012.0 |
| 20260508204505 | 7 | 280 | 1.6 | 3.2 | 0.00 | 0.00 | 0.00 | 43 | 1019.5 |
| 20260508204118 | 7 | 269 | 1.6 | 3.2 | 0.00 | 0.00 | 0.00 | 44 | 1011.9 |
| 20260508203614 | 7 | 269 | 1.6 | 4.8 | 0.00 | 0.00 | 0.00 | 43 | 1012.0 |
| 20260508203110 | 7 | 260 | 4.8 | 4.8 | 0.00 | 0.00 | 0.00 | 43 | 1011.6 |
| 20260508203005 | 7 | 283 | 3.2 | 4.8 | 0.00 | 0.00 | 0.00 | 44 | 1019.1 |
| 20260508202606 | 7 | 281 | 0.0 | 1.6 | 0.00 | 0.00 | 0.00 | 44 | 1011.8 |
| 20260508202504 | 7 | 281 | 1.6 | 3.2 | 0.00 | 0.00 | 0.00 | 45 | 1018.9 |
| 20260508202104 | 7 | 274 | 1.6 | 1.6 | 0.00 | 0.00 | 0.00 | 45 | 1011.6 |
| 20260508201600 | 7 | 239 | 0.0 | 3.2 | 0.00 | 0.00 | 0.00 | 43 | 1011.5 |
| 20260508201505 | 7 | 271 | 3.2 | 6.4 | 0.00 | 0.00 | 0.00 | 43 | 1019.0 |
| 20260508201057 | 7 | 260 | 1.6 | 3.2 | 0.00 | 0.00 | 0.00 | 44 | 1011.5 |
| 20260508200554 | 7 | 216 | 1.6 | 4.8 | 0.00 | 0.00 | 0.00 | 42 | 1011.5 |
| 20260508200049 | 7 | 245 | 1.6 | 3.2 | 0.00 | 0.00 | 0.00 | 44 | 1011.3 |
| 20260508200005 | 7 | 270 | 3.2 | 4.8 | 0.00 | 0.00 | 0.00 | 44 | 1019.0 |
| 20260508195547 | 7 | 271 | 1.6 | 3.2 | 0.00 | 0.00 | 0.00 | 44 | 1011.3 |
| 20260508195504 | 7 | 271 | 3.2 | 4.8 | 0.00 | 0.00 | 0.00 | 43 | 1018.9 |
| 20260508195043 | 6 | 273 | 1.6 | 3.2 | 0.00 | 0.00 | 0.00 | 45 | 1011.3 |
| 20260508195005 | 6 | 273 | 3.2 | 4.8 | 0.00 | 0.00 | 0.00 | 45 | 1018.8 |
| 20260508194540 | 6 | 299 | 0.0 | 3.2 | 0.00 | 0.00 | 0.00 | 46 | 1011.0 |
| 20260508194507 | 6 | 299 | 1.6 | 4.8 | 0.00 | 0.00 | 0.00 | 46 | 1018.5 |
| 20260508194037 | 6 | 271 | 3.2 | 3.2 | 0.00 | 0.00 | 0.00 | 45 | 1011.1 |
| 20260508193533 | 6 | 265 | 0.0 | 3.2 | 0.00 | 0.00 | 0.00 | 44 | 1011.2 |
| 20260508193505 | 6 | 265 | 0.0 | 4.8 | 0.00 | 0.00 | 0.00 | 44 | 1018.7 |
| 20260508193030 | 6 | 276 | 1.6 | 3.2 | 0.00 | 0.00 | 0.00 | 44 | 1011.3 |
| 20260508192527 | 6 | 287 | 3.2 | 3.2 | 0.00 | 0.00 | 0.00 | 42 | 1011.3 |
| 20260508192504 | 6 | 287 | 3.2 | 4.8 | 0.00 | 0.00 | 0.00 | 42 | 1018.8 |
| 20260508192024 | 6 | 296 | 1.6 | 1.6 | 0.00 | 0.00 | 0.00 | 41 | 1011.3 |
| 20260508191521 | 7 | 296 | 1.6 | 3.2 | 0.00 | 0.00 | 0.00 | 40 | 1011.3 |
| 20260508191505 | 7 | 296 | 1.6 | 4.8 | 0.00 | 0.00 | 0.00 | 40 | 1018.8 |
| 20260508191017 | 7 | 281 | 0.0 | 1.6 | 0.00 | 0.00 | 0.00 | 39 | 1011.3 |
| 20260508190515 | 7 | 277 | 0.0 | 3.2 | 0.00 | 0.00 | 0.00 | 39 | 1011.3 |
| 20260508190505 | 7 | 277 | 1.6 | 4.8 | 0.00 | 0.00 | 0.00 | 39 | 1018.8 |
| 20260508190011 | 7 | 282 | 1.6 | 3.2 | 0.00 | 0.00 | 0.00 | 40 | 1011.1 |
| 20260508190006 | 7 | 282 | 3.2 | 4.8 | 0.00 | 0.00 | 0.00 | 40 | 1018.6 |
| 20260508185509 | 7 | 288 | 3.2 | 4.8 | 0.00 | 0.00 | 0.00 | 39 | 1011.0 |
| 20260508185006 | 7 | 297 | 1.6 | 1.6 | 0.00 | 0.00 | 0.00 | 38 | 1011.2 |
| 20260508184505 | 7 | 295 | 3.2 | 6.4 | 0.00 | 0.00 | 0.00 | 36 | 1018.7 |
| 20260508184000 | 7 | 280 | 3.2 | 3.2 | 0.00 | 0.00 | 0.00 | 37 | 1011.1 |
| 20260508183456 | 7 | 323 | 0.0 | 3.2 | 0.00 | 0.00 | 0.00 | 36 | 1010.8 |
| 20260508183004 | 7 | 287 | 1.6 | 4.8 | 0.00 | 0.00 | 0.00 | 35 | 1018.5 |
| 20260508182951 | 7 | 287 | 1.6 | 3.2 | 0.00 | 0.00 | 0.00 | 35 | 1011.0 |
| 20260508182505 | 7 | 281 | 4.8 | 6.4 | 0.00 | 0.00 | 0.00 | 35 | 1018.4 |
| 20260508182449 | 7 | 283 | 1.6 | 4.8 | 0.00 | 0.00 | 0.00 | 35 | 1011.1 |
| 20260508181944 | 7 | 286 | 3.2 | 8.0 | 0.00 | 0.00 | 0.00 | 34 | 1010.9 |
| 20260508181505 | 7 | 281 | 4.8 | 6.4 | 0.00 | 0.00 | 0.00 | 36 | 1018.4 |
| 20260508181441 | 7 | 295 | 3.2 | 3.2 | 0.00 | 0.00 | 0.00 | 35 | 1010.7 |
| 20260508180938 | 7 | 277 | 1.6 | 3.2 | 0.00 | 0.00 | 0.00 | 37 | 1011.0 |
| 20260508180435 | 7 | 281 | 1.6 | 3.2 | 0.00 | 0.00 | 0.00 | 36 | 1010.8 |
| 20260508180005 | 7 | 281 | 0.0 | 6.4 | 0.00 | 0.00 | 0.00 | 34 | 1018.4 |
| 20260508175931 | 7 | 281 | 1.6 | 4.8 | 0.00 | 0.00 | 0.00 | 34 | 1010.9 |
| 20260508175427 | 7 | 296 | 1.6 | 4.8 | 0.00 | 0.00 | 0.00 | 34 | 1010.9 |
| 20260508174926 | 7 | 277 | 3.2 | 3.2 | 0.00 | 0.00 | 0.00 | 34 | 1010.9 |
| 20260508174423 | 7 | 282 | 1.6 | 3.2 | 0.00 | 0.00 | 0.00 | 34 | 1010.9 |